Location: Schommer Observatory
(40.5200°N, 74.4500°W)
Time: 05:27:51
(UTC-04:00)

ISS - Pass Details

Date: 19 May 2018
Orbit: 402 x 407 km, 51.6° (Epoch: 27 May)

Event Time Altitude Azimuth Distance (km) Brightness Sun altitude
Rises 02:40:29 0° 309° (NW) 2,319 0.2 -24.8°
Reaches altitude 10° 02:43:27 10° 339° (NNW) 1,458 -0.5 -24.6°
Maximum altitude 02:45:05 13° 9° (N) 1,285 -0.4 -24.4°
Drops below altitude 10° 02:46:43 10° 39° (NE) 1,457 0.0 -24.3°
Sets 02:49:41 0° 69° (ENE) 2,316 0.8 -24.0°
